User: anonymous   Login
Location: アルンシュタイン
(50.0000°N, 10.0000°E)
Time: 19:33:39
(UTC+02:00)
Language:

Envisat - Orbit

View from above orbital plane
View from above orbital plane
View from above satellite
View from above satellite

Ground track
Ground track

The orbit data is extracted from the following two-line orbital elements,

1 27386U 02009A   24150.53328715  .00000166  00000-0  68068-4 0  9998
2 27386  98.2811 112.2713 0001231  91.0840  22.9887 14.38580172165897
Epoch (UTC): 29 May 2024 12:47:56
Eccentricity: 0.0001231
inclination: 98.2811°
perigee height: 762 km
apogee height: 764 km
right ascension of ascending node: 112.2713°
argument of perigee: 91.0840°
revolutions per day: 14.38580172
mean anomaly at epoch: 22.9887°
orbit number at epoch: 16589

The dashed part of the orbit path shows where the satellite is in the earth's shadow,  

DLR